[[{"header":{"parameterUnit":"m.s-1","parameterCategory":1,"la1":30.2991,"la2":30.254,"lo1":-89.0895,"lo2":-89.0444,"dy":0.0017,"dx":0.0017,"nx":28,"ny":28,"refTime":"2023-08-10T21:00:00:Z","depth":0,"parameterNumber":2,"parameterNumberName":"U-component_of_WINDS"},"data":[0,0,0,0,0,0,0,0,0,0,0,0,0,0,0,0,0,0,0,0,0,0,0,0,0,0,0,0,0,0,0,0,0,0,0,0,0,0,0,0,0,0,0,0,0,0,0,0,0,0,0,0,0,0,0,0,0,0,4.6956,4.6957,0,4.7085,4.7087,4.7088,4.7047,4.7044,4.7042,4.7039,4.7171,4.7177,4.7183,0,0,0,0,0,0,0,0,0,0,0,0,0,4.667,4.6676,4.6956,4.6957,4.6959,4.7085,4.7087,4.7089,4.7048,4.7044,4.7041,4.7038,4.7169,4.7176,4.7183,0,0,0,0,0,0,0,0,0,0,0,0,0,4.6796,4.6677,4.6955,4.6954,4.6955,4.7085,4.7087,4.7089,4.7048,4.7044,4.704,4.7036,4.7166,4.7175,4.7184,4.7323,0,0,4.7212,4.7216,0,0,0,0,0,0,0,0,4.6789,4.6807,4.6952,4.6954,4.6956,4.7046,4.7034,4.7168,4.7049,4.7013,4.7039,4.7034,4.7132,4.7144,4.7177,4.733,4.7335,4.7213,4.7218,4.7222,4.7225,0,0,0,0,0,0,0,4.6781,4.6801,4.7007,4.6954,4.6956,4.6946,4.6959,4.706,4.7094,4.7016,4.7013,4.7029,4.7133,4.7169,4.718,4.7337,4.7213,4.7221,4.7226,4.723,4.7606,4.7611,0,0,0,0,0,0,4.6771,4.6794,4.7003,4.7011,4.6861,4.6954,4.6969,4.7021,4.7093,4.71,4.7032,4.7026,4.7155,4.717,4.7185,4.7349,4.7222,4.7231,4.7236,4.7602,4.7607,4.7612,0,0,0,0,0,0,4.6765,4.679,4.6998,4.6902,4.6927,4.6963,4.7022,4.7026,4.7062,4.7106,4.7111,4.7063,4.7153,4.7172,4.7288,4.7353,4.7235,4.7243,4.7597,4.7604,4.761,4.7682,0,0,0,0,0,0,4.6757,4.6788,4.6842,4.6903,4.6933,4.71,4.7026,4.7031,4.7078,4.7071,4.7136,4.7143,4.7151,4.7275,4.7298,4.7364,4.725,4.7591,4.76,4.7608,4.7674,4.769,4.7704,0,0,0,0,0,4.6747,4.6858,4.6845,4.6871,4.7001,4.7104,4.7121,4.7128,4.7083,4.7137,4.7165,4.7141,4.7343,4.7287,4.7312,4.7382,4.7587,4.7597,4.7607,4.7667,4.7687,4.7704,0,0,0,0,0,0,4.6804,4.6866,4.6852,4.6987,4.704,4.7097,4.7165,4.7149,4.7217,4.7208,4.7214,4.7229,4.7348,4.7377,4.7314,4.7519,4.7458,4.7474,4.7495,4.7515,4.753,4.7519,4.7258,0,0,0,0,0,4.6832,4.6911,4.6961,4.7074,4.7102,4.7129,4.7174,4.7175,4.7231,4.7253,4.7289,4.7344,4.7419,4.7469,4.7542,4.7679,4.769,4.7739,4.7754,4.7767,4.7779,4.785,4.7871,4.7646,4.7646,4.7645,0,0,4.6891,4.6934,4.6984,4.7087,4.7128,4.7208,4.7148,4.7237,4.7296,4.7266,4.7377,4.7406,4.7468,4.7594,4.7652,4.7622,4.7844,4.778,4.7789,4.7795,4.7863,4.7884,4.7903,4.7653,4.7651,4.765,0,0,4.7038,4.708,4.7178,4.722,4.7284,4.7301,4.7324,4.7383,4.7401,4.7513,4.7492,4.7562,4.7693,4.7737,4.7776,4.7938,4.7917,4.7962,4.804,4.811,4.8127,4.8143,4.8197,4.8217,4.7975,4.7975,4.7975,0,4.7102,4.7223,4.723,4.7319,4.7363,4.7341,4.7438,4.748,4.7564,4.7594,4.7561,4.7722,4.7763,4.7897,4.7936,4.797,4.7995,4.7953,4.8124,4.814,4.8155,4.8207,4.8228,4.7979,4.7979,4.7978,4.7978,0,4.7298,4.7382,4.7453,4.7533,4.7586,4.768,4.7699,4.7752,4.7748,4.7768,4.7881,4.7928,4.8007,4.804,4.8038,4.8174,4.8153,4.8123,4.8061,4.8181,4.823,4.825,4.7986,4.7984,4.7983,4.7982,0,0,4.7483,4.7566,4.7591,4.7626,4.7694,4.7759,4.785,4.7928,4.7971,4.8031,4.8105,4.8216,4.8187,4.8231,4.8234,4.8295,4.8416,4.8256,4.8257,4.8281,4.8565,4.8585,4.8608,4.8404,4.8408,4.8411,4.8558,0,4.7634,4.7794,4.7802,4.7947,4.8023,4.8002,4.8081,4.813,4.8151,4.8218,4.8242,4.8318,4.8276,4.8302,4.8362,4.8389,4.8473,4.8379,4.8471,4.8474,4.8453,4.8634,4.8657,4.8794,4.8578,4.8581,4.8584,0,4.783,4.7894,4.8046,4.8101,4.8133,4.8204,4.8274,4.8339,4.8394,4.8405,4.8454,4.8447,4.8539,4.8476,4.8601,4.8536,4.8575,4.8594,4.8599,4.8605,4.8534,4.8642,4.8838,4.8858,4.8614,4.8612,4.861,0,4.7946,4.807,4.8176,4.8208,4.8275,4.8325,4.8355,4.8406,4.8451,4.8513,4.8542,4.8614,4.8653,4.8708,4.872,4.8674,4.8844,4.8783,4.8853,4.8853,4.8888,4.8885,4.9089,4.8918,4.8918,4.8918,4.8917,0,4.8111,4.8204,4.8229,4.8294,4.8397,4.8405,4.8506,4.8533,4.8578,4.8647,4.8634,4.8699,4.8712,4.8779,4.879,4.8889,4.8908,4.8918,4.8919,4.8917,4.8915,4.894,4.8929,4.8923,4.8922,4.8921,4.892,0,4.8257,4.8277,4.8391,4.8445,4.8461,4.8534,4.8579,4.8641,4.866,4.8747,4.8768,4.8799,4.8877,4.8895,4.8988,4.8995,4.9112,4.9105,4.9093,4.9091,4.9159,4.9151,4.9384,4.9413,4.9226,4.9228,4.923,0,4.8359,4.843,4.8491,4.8536,4.8568,4.8642,4.8687,4.8698,4.8746,4.8812,4.8865,4.8942,4.9003,4.9129,4.9158,4.9229,4.9222,4.9298,4.9232,4.9227,4.9218,4.9213,4.9218,4.931,4.9312,4.9314,4.9315,0,4.8538,4.8544,4.861,4.868,4.8735,4.8791,4.8844,4.8881,4.8898,4.8953,4.9032,4.908,4.9174,4.9249,4.9319,4.9349,4.9334,4.9336,4.9355,4.9353,4.9341,4.9344,4.9123,4.933,4.9328,4.9327,4.9327,4.9326,4.8662,4.8723,4.8775,4.8849,4.8889,4.8939,4.8998,4.9024,4.9091,4.9168,4.917,4.9256,4.9307,4.9399,4.9434,4.95,4.9476,4.9505,4.9511,4.9518,4.9522,4.9333,4.9513,4.9513,4.9512,4.9512,4.9512,0,4.8837,4.8869,4.8937,4.901,4.9068,4.905,4.9107,4.9156,4.9231,4.928,4.934,4.943,4.9502,4.9538,4.9609,4.9654,4.9649,4.9672,4.9667,4.9674,4.9541,4.9515,4.9675,4.9675,4.9675,4.9675,4.9675,4.9675,4.8934,4.9035,4.9047,4.9167,4.9198,4.9281,4.9315,4.9359,4.9398,4.9498,4.9558,4.9581,4.9623,4.9697,4.9762,4.977,4.9795,4.9821,4.9826,4.9701,4.9684,4.9668,4.9643,4.9828,4.9828,4.9953,4.9954,4.9955]},{"header":{"parameterUnit":"m.s-1","parameterCategory":1,"la1":30.2991,"la2":30.254,"lo1":-89.0895,"lo2":-89.0444,"dy":0.0017,"dx":0.0017,"nx":28,"ny":28,"refTime":"2023-08-10T21:00:00:Z","depth":0,"parameterNumber":3,"parameterNumberName":"V-component_of_WINDS"},"data":[0,0,0,0,0,0,0,0,0,0,0,0,0,0,0,0,0,0,0,0,0,0,0,0,0,0,0,0,0,0,0,0,0,0,0,0,0,0,0,0,0,0,0,0,0,0,0,0,0,0,0,0,0,0,0,0,0,0,1.8779,1.8779,0,1.8837,1.8837,1.8838,1.8806,1.8804,1.8803,1.8801,1.886,1.8863,1.8866,0,0,0,0,0,0,0,0,0,0,0,0,0,1.864,1.8642,1.8779,1.878,1.878,1.8836,1.8837,1.8838,1.8806,1.8804,1.8802,1.88,1.8859,1.8863,1.8866,0,0,0,0,0,0,0,0,0,0,0,0,0,1.8699,1.8643,1.8779,1.8771,1.8771,1.8836,1.8837,1.8838,1.8807,1.8804,1.8802,1.88,1.8858,1.8862,1.8867,1.8943,0,0,1.8881,1.8883,0,0,0,0,0,0,0,0,1.8696,1.8704,1.8771,1.8772,1.8772,1.8812,1.881,1.8873,1.8807,1.8793,1.8801,1.8798,1.8846,1.8851,1.8867,1.8946,1.8948,1.8881,1.8884,1.8886,1.8887,0,0,0,0,0,0,0,1.8692,1.8702,1.8802,1.8772,1.8773,1.8764,1.877,1.8822,1.8832,1.8794,1.8792,1.8799,1.8845,1.8863,1.8869,1.8949,1.8881,1.8885,1.8888,1.889,1.9091,1.9094,0,0,0,0,0,0,1.8688,1.8698,1.88,1.8803,1.8727,1.8769,1.8775,1.8801,1.8831,1.8834,1.8801,1.8797,1.8856,1.8863,1.887,1.8961,1.8886,1.889,1.8893,1.9089,1.9092,1.9095,0,0,0,0,0,0,1.8685,1.8697,1.8797,1.875,1.8762,1.8774,1.8803,1.8804,1.8821,1.8837,1.8838,1.8817,1.8855,1.8864,1.8925,1.8963,1.8892,1.8897,1.9086,1.909,1.9093,1.9143,0,0,0,0,0,0,1.8681,1.8697,1.8726,1.8751,1.8765,1.8852,1.8805,1.8806,1.8829,1.8825,1.8852,1.8855,1.8854,1.8918,1.8929,1.8968,1.89,1.9082,1.9087,1.9092,1.9138,1.9148,1.9157,0,0,0,0,0,1.8677,1.8738,1.8728,1.874,1.8802,1.8854,1.8862,1.8859,1.8832,1.8862,1.8871,1.8854,1.8956,1.8925,1.8937,1.8977,1.908,1.9086,1.9092,1.9134,1.9146,1.9156,0,0,0,0,0,0,1.8717,1.8741,1.873,1.8802,1.8826,1.8848,1.8885,1.8872,1.8905,1.89,1.8895,1.8902,1.8965,1.8977,1.8941,1.9052,1.9014,1.9022,1.9042,1.9053,1.9063,1.9059,1.8904,0,0,0,0,0,1.8735,1.8775,1.8793,1.8855,1.8867,1.8874,1.8897,1.8893,1.8918,1.8928,1.8942,1.8967,1.9004,1.9029,1.9065,1.9139,1.9144,1.9173,1.9182,1.9189,1.9197,1.9236,1.9249,1.9114,1.9114,1.9114,0,0,1.8771,1.8789,1.8815,1.8863,1.8882,1.8923,1.8883,1.8929,1.8959,1.8935,1.8993,1.9004,1.9031,1.9099,1.9129,1.9111,1.9235,1.9197,1.9203,1.9206,1.9244,1.9256,1.9268,1.9118,1.9117,1.9116,0,0,1.8858,1.8876,1.8929,1.8947,1.8975,1.8979,1.8992,1.9016,1.9023,1.9081,1.9063,1.9099,1.9164,1.9184,1.9202,1.9295,1.928,1.9307,1.9356,1.9394,1.9405,1.9414,1.9447,1.9459,1.9314,1.9315,1.9315,0,1.89,1.8962,1.8957,1.9004,1.9026,1.9004,1.9057,1.9076,1.9114,1.9129,1.9108,1.9189,1.9205,1.9277,1.9299,1.9315,1.9329,1.9304,1.9404,1.9413,1.9422,1.9453,1.9466,1.9318,1.9317,1.9317,1.9317,0,1.9011,1.9054,1.9093,1.9131,1.9156,1.9206,1.9209,1.9235,1.9228,1.9234,1.9293,1.9312,1.9351,1.9367,1.9362,1.9438,1.9426,1.9404,1.9366,1.9438,1.9467,1.9479,1.9322,1.9321,1.932,1.9319,0,0,1.9128,1.916,1.9175,1.9191,1.922,1.9253,1.9301,1.9338,1.9361,1.9388,1.9428,1.9482,1.9462,1.9484,1.9479,1.9513,1.9585,1.9487,1.9488,1.9505,1.967,1.9686,1.97,1.9574,1.9576,1.9578,1.9667,0,1.9217,1.9301,1.9298,1.9376,1.9416,1.9395,1.9437,1.9459,1.9465,1.9499,1.9506,1.9545,1.9516,1.9528,1.956,1.9569,1.9618,1.9563,1.9611,1.9613,1.9606,1.9715,1.9733,1.9816,1.9679,1.9681,1.9682,0,1.9332,1.9363,1.9445,1.9467,1.9483,1.9521,1.9554,1.9587,1.9611,1.9613,1.9636,1.9626,1.9674,1.9634,1.97,1.9662,1.9682,1.9689,1.9692,1.9697,1.9652,1.9723,1.9843,1.9855,1.97,1.9699,1.9697,0,1.9409,1.947,1.9527,1.9541,1.9568,1.9595,1.9607,1.9629,1.9651,1.968,1.9695,1.9729,1.9748,1.9774,1.9774,1.9745,1.984,1.98,1.9843,1.9843,1.9865,1.9864,1.9989,1.9877,1.9876,1.9876,1.9876,0,1.9509,1.956,1.9562,1.9597,1.9653,1.9648,1.9704,1.9714,1.9733,1.9769,1.9753,1.9787,1.9784,1.9818,1.9817,1.9872,1.988,1.9883,1.9883,1.9885,1.9885,1.9898,1.9893,1.988,1.9879,1.9878,1.9878,0,1.9605,1.9607,1.9668,1.9688,1.9694,1.9735,1.9752,1.9785,1.9789,1.9835,1.9846,1.9853,1.9892,1.9893,1.9939,1.9938,2.0005,1.9997,1.9997,1.9996,2.0038,2.0034,2.0177,2.0196,2.0071,2.0072,2.0073,0,1.9669,1.9708,1.9731,1.9754,1.9768,1.9806,1.9828,1.9824,1.9848,1.9877,1.9907,1.9945,1.9975,2.0039,2.0048,2.0082,2.0075,2.0123,2.0081,2.0082,2.0076,2.0074,2.0078,2.0132,2.0133,2.0134,2.0135,0,1.9782,1.9781,1.9814,1.9848,1.9875,1.9902,1.9926,1.9945,1.9944,1.9972,2.0012,2.0035,2.0081,2.0119,2.0152,2.0164,2.0149,2.0148,2.016,2.0163,2.0161,2.0163,2.002,2.0145,2.0144,2.0144,2.0143,2.0143,1.9864,1.9897,1.9919,1.9956,1.9974,1.9996,2.0028,2.0036,2.007,2.0107,2.0102,2.0146,2.0168,2.0211,2.0225,2.0259,2.0243,2.026,2.0264,2.0269,2.0273,2.0155,2.0265,2.0265,2.0265,2.0265,2.0264,0,1.9976,1.9989,2.0023,2.0057,2.0086,2.007,2.0095,2.0121,2.016,2.0181,2.0211,2.0256,2.0292,2.0304,2.0338,2.0363,2.0358,2.0373,2.0371,2.0374,2.0286,2.0273,2.0377,2.0377,2.0377,2.0377,2.0377,2.0377,2.0038,2.0094,2.0095,2.0159,2.0171,2.0214,2.023,2.0251,2.0267,2.0319,2.0349,2.0355,2.0372,2.0408,2.044,2.0442,2.0456,2.0474,2.0473,2.0392,2.038,2.037,2.0357,2.0477,2.0477,2.0558,2.0559,2.056]}]]